map of RAO home
Great Circle Mapper logo
RAO - Airport
Location
City:  Riberão Preto, São Paulo, Brazil
Name:Leite Lopes
ICAO / IATA:SBRP / RAO

Details
Type:Airport (Aerodrome, Airfield)
Use:Public/Civil
Latitude:21°08'03"S (-21.134166)
Longitude:47°46'27"W (-47.774188)
Datum:WGS 1984
Elevation:1802 ft (549 m)
Variation:20.89°W (WMM2015 magnetic declination)
-0.12° annual change
Runways:1
Longest:6890 × 115 ft (2100 × 35 m), paved

Time
Time Zone:UTC-3 (DST-2)
Local Time:

Weather
METAR:SBRP 051200Z 14005KT 9999 FEW010 SCT100 22/19 Q1018
TAF:SBRP 050900Z 0512/0612 16005KT 8000 BKN020 TX26/0517Z TN20/0609Z
BECMG 0512/0514 9999 FEW020
BECMG 0515/0517 SCT025
BECMG 0521/0523 14005KT FEW025
BECMG 0602/0604 CAVOK PROB30 0607/0611 5000 BR SCT020
RMK PHH

Related Locations
Nearby:
Farthest:MMD: 12100 mi / 19474 km
Minami Daito Jima, Okinawa, JP

Find:

   beyond  
but within

Other Information
Maps:
NOTAMs:
Links:
Sources:

  
flag of Brazil
flag of São Paulo
  

Sectional Chart

Flight Planning
at skyvector.com

Satellite Image

Google Maps Satellite View

 

Copyright © 2004-2015 Karl L. Swartz. All rights reserved.
The Great Circle Mapper name and logo are trademarks of the Great Circle Mapper.
All other trademarks mentioned herein belong to their respective owners.
Please see credits for attibutions and further copyright information.

  Follow gcmap on Facebook Follow gcmap on Twitter Follow gcmap on Google+

hCard Microformat

Geo Microformat